Home > Weather > Welland > Past weeks

Flag for Canada Past Weather in Welland, Ontario, Canada — Yesterday and Last 2 Weeks

Now
76 °F

Mild.


Feels Like: 78 °F
Forecast: N/A
Wind: 14 mph from Southeast

Location: Port Colborne Airport

Current Time: Jul 30, 2016 at 4:45:28 PM

Latest Report: Jul 30, 2016 at 4:00 PM


Visibility: N/A

Pressure: 29.98 "Hg

Humidity: 59%

Dew Point: 61 °F

Location of WellandLocation

Past Weather in Welland — Graph

°F

Welland Temperature Yesterday

Maximum temperature yesterday: 80 °F (at 5:00 PM)
Minimum temperature yesterday: 71 °F (at 7:00 AM)
Average temperature yesterday: 75 °F

High & Low Weather Summary for the Past Weeks

 TemperatureHumidityPressure
High81 °F (Jul 28, 6:00 PM)90% (Jul 18, 9:00 AM)30.28 "Hg (Jul 18, 9:00 AM)
Low61 °F (Jul 16, 6:00 AM)34% (Jul 18, 8:00 PM)29.83 "Hg (Jul 25, 6:00 PM)
Average73 °F69%30.01 "Hg
* Reported Jul 15 3:00 PM — Jul 30 3:00 PM, Welland, Weather by CustomWeather, © 2016

Note: Actual official high and low records may vary slightly from our data, if they occured in-between our weather recording intervals... More about our weather records

Advertising

Welland Weather History for the Previous 24 Hours

Scroll right to see more
 ConditionsComfort  
Time TempWeatherWind HumidityBarometerVisibility
3:00 PM
Sat, Jul 30
75 °FMild.16 mph63%29.99 "HgN/A
2:00 PM72 °FMild.15 mph73%30.00 "HgN/A
1:00 PM72 °FMild.14 mph70%30.02 "HgN/A
12:00 PM71 °FMild.9 mph70%30.02 "HgN/A
11:00 AM69 °FMild.10 mph70%30.03 "HgN/A
10:00 AM68 °FMild.9 mph76%30.03 "HgN/A
9:00 AM67 °FMild.9 mph75%30.03 "HgN/A
8:00 AM68 °FMild.8 mph74%30.01 "HgN/A
7:00 AM68 °FMild.10 mph74%30.00 "HgN/A
6:00 AM69 °FMild.12 mph69%29.98 "HgN/A
5:00 AM69 °FMild.12 mph71%29.98 "HgN/A
4:00 AM67 °FMild.10 mph81%29.98 "HgN/A
3:00 AM70 °FMild.10 mph72%29.99 "HgN/A
2:00 AM71 °FMild.6 mph69%29.98 "HgN/A
1:00 AM71 °FMild.9 mph66%29.98 "HgN/A
12:00 AM72 °FMild.9 mph64%29.99 "HgN/A
11:00 PM
Fri, Jul 29
73 °FMild.9 mph63%29.99 "HgN/A
10:00 PM74 °FMild.9 mph59%29.98 "HgN/A
9:00 PM76 °FMild.8 mph57%29.97 "HgN/A
8:00 PM77 °FWarm.12 mph55%29.96 "HgN/A
7:00 PM79 °FWarm.14 mph51%29.95 "HgN/A
6:00 PM80 °FWarm.12 mph51%29.94 "HgN/A
5:00 PM80 °FWarm.10 mph49%29.94 "HgN/A
4:00 PM79 °FWarm.12 mph53%29.94 "HgN/A
Weather by CustomWeather, © 2016

See weather overviewHow to use our weather pages